When you browse on this site, cookies collect data to enhance your experience and personalize the content and advertising you see.
Visit our Privacy Policy to learn more. By continuing to use the site, you agree to this use of cookies and data.
  • In Belgium
  • List of Countries
  • For 7 days
  • Water Temperature
  • Satellite Maps
  • Weather Map
  • Weather Widgets
  • user-avatar
    Login

    Hourly Weather Sunbury

    Today, 14 December, Friday

    Time Temperature Precipitation Wind Pressure Humidity
    00:00 +1°C° 0 mm 2 mps 763 mmHg 76%
    01:00 +1°C° 0 mm 2 mps 763 mmHg 76%
    02:00 +1°C° 0 mm 2 mps 763 mmHg 76%
    03:00 +1°C° 0 mm 2 mps 763 mmHg 76%
    04:00 +1°C° 0 mm 2 mps 764 mmHg 77%
    05:00 +1°C° 0 mm 2 mps 764 mmHg 77%
    06:00 +1°C° 0 mm 2 mps 764 mmHg 79%
    07:00 +1°C° 0 mm 2 mps 764 mmHg 78%
    08:00 +1°C° 0 mm 2 mps 764 mmHg 78%
    09:00 +2°C° 0 mm 2 mps 764 mmHg 77%
    10:00 +3°C° 0 mm 2 mps 764 mmHg 73%
    11:00 +2°C° 0 mm 3 mps 765 mmHg 70%
    12:00 +3°C° 0 mm 3 mps 765 mmHg 66%
    13:00 +4°C° 0 mm 2 mps 765 mmHg 67%
    14:00 +4°C° 0 mm 2 mps 765 mmHg 68%
    15:00 +3°C° 0 mm 2 mps 765 mmHg 69%
    16:00 +3°C° 0 mm 2 mps 765 mmHg 72%
    17:00 +2°C° 0 mm 2 mps 765 mmHg 74%
    18:00 +1°C° 0 mm 2 mps 765 mmHg 76%
    19:00 +1°C° 0 mm 2 mps 765 mmHg 76%
    20:00 0°C° 0 mm 3 mps 765 mmHg 75%
    21:00 0°C° 0 mm 3 mps 765 mmHg 75%
    22:00 0°C° 0 mm 3 mps 765 mmHg 74%
    23:00 +1°C° 0 mm 3 mps 764 mmHg 74%

    Tomorrow, 15 December, Saturday

    Time Temperature Precipitation Wind Pressure Humidity
    00:00 0°C° 0 mm 4 mps 764 mmHg 74%
    01:00 0°C° 0 mm 4 mps 764 mmHg 74%
    02:00 0°C° 0 mm 5 mps 763 mmHg 74%
    03:00 0°C° 0 mm 5 mps 762 mmHg 74%
    04:00 0°C° 0 mm 5 mps 762 mmHg 73%
    05:00 -1°C° 0 mm 6 mps 761 mmHg 72%
    06:00 -1°C° 0 mm 6 mps 761 mmHg 72%
    07:00 +1°C° 0.1 mm 6 mps 760 mmHg 71%
    08:00 0°C° 0.1 mm 7 mps 760 mmHg 71%
    09:00 0°C° 0.1 mm 7 mps 759 mmHg 71%
    10:00 0°C° 0.1 mm 8 mps 758 mmHg 71%
    11:00 +1°C° 0.1 mm 8 mps 757 mmHg 71%
    12:00 +1°C° 0.1 mm 8 mps 756 mmHg 71%
    13:00 +1°C° 0.8 mm 9 mps 755 mmHg 76%
    14:00 +1°C° 0.8 mm 9 mps 753 mmHg 80%
    15:00 +1°C° 0.8 mm 9 mps 752 mmHg 84%
    16:00 +2°C° 1.2 mm 9 mps 751 mmHg 86%
    17:00 +3°C° 1.2 mm 9 mps 749 mmHg 88%
    18:00 +3°C° 1.2 mm 10 mps 748 mmHg 90%
    19:00 +5°C° 1.5 mm 9 mps 747 mmHg 89%
    20:00 +6°C° 1.5 mm 9 mps 746 mmHg 88%
    21:00 +7°C° 1.5 mm 9 mps 745 mmHg 87%
    22:00 +7°C° 0 mm 9 mps 745 mmHg 83%
    23:00 +7°C° 0 mm 10 mps 745 mmHg 80%

    Day after tomorrow, 16 December, Sunday

    Time Temperature Precipitation Wind Pressure Humidity
    00:00 +7°C° 0 mm 10 mps 745 mmHg 77%
    01:00 +6°C° 0 mm 9 mps 746 mmHg 77%
    02:00 +5°C° 0 mm 8 mps 748 mmHg 76%
    03:00 +5°C° 0 mm 7 mps 749 mmHg 76%
    04:00 +5°C° 0 mm 6 mps 749 mmHg 77%
    05:00 +4°C° 0 mm 6 mps 750 mmHg 79%
    06:00 +5°C° 0 mm 5 mps 751 mmHg 81%
    07:00 +5°C° 0 mm 5 mps 751 mmHg 82%
    08:00 +5°C° 0 mm 4 mps 752 mmHg 83%
    09:00 +5°C° 0 mm 4 mps 752 mmHg 83%
    10:00 +6°C° 0 mm 4 mps 752 mmHg 80%
    11:00 +7°C° 0 mm 4 mps 752 mmHg 77%
    12:00 +7°C° 0 mm 4 mps 752 mmHg 74%
    13:00 +7°C° 0 mm 4 mps 752 mmHg 76%
    14:00 +8°C° 0 mm 3 mps 752 mmHg 78%
    15:00 +8°C° 0 mm 3 mps 752 mmHg 80%
    16:00 +7°C° 0.1 mm 3 mps 753 mmHg 82%
    17:00 +7°C° 0.1 mm 3 mps 753 mmHg 85%
    18:00 +5°C° 0.1 mm 3 mps 754 mmHg 87%
    19:00 +5°C° 0.3 mm 3 mps 754 mmHg 88%
    20:00 +5°C° 0.3 mm 3 mps 754 mmHg 89%
    21:00 +6°C° 0.3 mm 2 mps 755 mmHg 90%
    22:00 +6°C° 0.1 mm 2 mps 755 mmHg 90%
    23:00 +6°C° 0.1 mm 2 mps 755 mmHg 91%

    17 December, Monday

    Time Temperature Precipitation Wind Pressure Humidity
    00:00 +5°C° 0.1 mm 2 mps 755 mmHg 91%
    01:00 +5°C° 0 mm 2 mps 756 mmHg 91%
    02:00 +5°C° 0 mm 2 mps 756 mmHg 91%
    03:00 +4°C° 0 mm 2 mps 756 mmHg 90%
    04:00 +4°C° 0 mm 2 mps 757 mmHg 90%
    05:00 +4°C° 0 mm 2 mps 757 mmHg 90%
    06:00 +3°C° 0 mm 3 mps 758 mmHg 89%
    07:00 +3°C° 0 mm 3 mps 758 mmHg 89%
    08:00 +4°C° 0 mm 2 mps 759 mmHg 89%
    09:00 +4°C° 0 mm 2 mps 760 mmHg 89%
    10:00 +5°C° 0 mm 3 mps 760 mmHg 85%
    11:00 +7°C° 0 mm 3 mps 760 mmHg 81%
    12:00 +7°C° 0 mm 4 mps 761 mmHg 77%
    13:00 +8°C° 0 mm 3 mps 761 mmHg 79%
    14:00 +8°C° 0 mm 3 mps 761 mmHg 81%
    15:00 +8°C° 0 mm 3 mps 761 mmHg 83%
    16:00 +7°C° 0 mm 4 mps 760 mmHg 85%
    17:00 +7°C° 0 mm 4 mps 760 mmHg 86%
    18:00 +7°C° 0 mm 5 mps 760 mmHg 88%
    19:00 +7°C° 0 mm 5 mps 760 mmHg 88%
    20:00 +7°C° 0 mm 6 mps 760 mmHg 88%
    21:00 +8°C° 0 mm 6 mps 760 mmHg 88%
    22:00 +8°C° 0 mm 7 mps 759 mmHg 87%
    23:00 +8°C° 0 mm 7 mps 759 mmHg 87%

    18 December, Tuesday

    Time Temperature Precipitation Wind Pressure Humidity
    00:00 +9°C° 0 mm 7 mps 759 mmHg 87%
    01:00 +9°C° 0.1 mm 8 mps 758 mmHg 86%
    02:00 +9°C° 0.1 mm 8 mps 757 mmHg 85%
    03:00 +9°C° 0.1 mm 8 mps 757 mmHg 84%
    04:00 +9°C° 0 mm 8 mps 756 mmHg 83%
    05:00 +9°C° 0 mm 8 mps 756 mmHg 82%
    06:00 +8°C° 0 mm 9 mps 755 mmHg 80%
    07:00 +8°C° 0 mm 9 mps 754 mmHg 78%
    08:00 +7°C° 0 mm 9 mps 754 mmHg 75%
    09:00 +7°C° 0 mm 9 mps 753 mmHg 73%
    10:00 +7°C° 0.2 mm 10 mps 751 mmHg 72%
    11:00 +7°C° 0.2 mm 11 mps 750 mmHg 71%
    12:00 +7°C° 0.2 mm 11 mps 749 mmHg 70%
    13:00 +7°C° 0.9 mm 11 mps 748 mmHg 74%
    14:00 +7°C° 0.9 mm 11 mps 748 mmHg 77%
    15:00 +8°C° 0.9 mm 11 mps 747 mmHg 81%
    16:00 +7°C° 0.4 mm 9 mps 747 mmHg 80%
    17:00 +7°C° 0.4 mm 8 mps 748 mmHg 79%
    18:00 +8°C° 0.4 mm 7 mps 748 mmHg 78%
    19:00 +8°C° 0 mm 6 mps 749 mmHg 78%
    20:00 +7°C° 0 mm 6 mps 749 mmHg 78%
    21:00 +7°C° 0 mm 5 mps 750 mmHg 78%
    22:00 +7°C° 0 mm 5 mps 750 mmHg 79%
    23:00 +7°C° 0 mm 5 mps 750 mmHg 80%

    19 December, Wednesday

    Time Temperature Precipitation Wind Pressure Humidity
    00:00 +7°C° 0 mm 5 mps 751 mmHg 81%
    01:00 +7°C° 0.2 mm 5 mps 751 mmHg 82%
    02:00 +7°C° 0.2 mm 5 mps 751 mmHg 82%
    03:00 +7°C° 0.2 mm 5 mps 751 mmHg 83%
    04:00 +6°C° 0.1 mm 5 mps 751 mmHg 81%
    05:00 +6°C° 0.1 mm 5 mps 751 mmHg 80%
    06:00 +6°C° 0.1 mm 4 mps 751 mmHg 79%
    07:00 +6°C° 0 mm 5 mps 751 mmHg 78%
    08:00 +6°C° 0 mm 5 mps 751 mmHg 78%
    09:00 +6°C° 0 mm 5 mps 751 mmHg 77%
    10:00 +5°C° 0.1 mm 6 mps 751 mmHg 74%
    11:00 +7°C° 0.1 mm 6 mps 751 mmHg 71%
    12:00 +8°C° 0.1 mm 7 mps 751 mmHg 68%
    13:00 +8°C° 0.1 mm 6 mps 751 mmHg 69%
    14:00 +7°C° 0.1 mm 6 mps 751 mmHg 70%
    15:00 +7°C° 0.1 mm 6 mps 750 mmHg 71%
    16:00 +7°C° 0 mm 6 mps 750 mmHg 73%
    17:00 +7°C° 0 mm 6 mps 750 mmHg 74%
    18:00 +5°C° 0 mm 6 mps 750 mmHg 75%
    19:00 +5°C° 0 mm 6 mps 750 mmHg 76%
    20:00 +5°C° 0 mm 6 mps 749 mmHg 77%
    21:00 +5°C° 0 mm 6 mps 749 mmHg 78%
    22:00 +7°C° 0.2 mm 6 mps 749 mmHg 78%
    23:00 +7°C° 0.2 mm 6 mps 749 mmHg 78%
    Show more